Torna al catalogo

STARLINK-35467

AttivoComunicazioniVLEO
NORAD 66343·PAYLOAD·🇺🇸 United States

Lanciato Nov 6, 2025 da Cape Canaveral Space Force Station

Loading…

Prossimi Passaggi (prossime 24 ore)

TLE

AggiornatoSource: CelesTrak SupGP

Epoca: Sep 15, 2026, 02:38 UTC

1 66343C 25253AA  26258.11020833 -.00039699  00000+0 -14380-2 0  2583
2 66343  42.9995 223.0017 0001170 267.9997   0.2001 15.27596665    11

Traccia STARLINK-35467 in tempo reale con AllMySat

Download on the App Store